Moose Lake, MN

10:27 PM CDT on September 22, 2017 (GMT -0500)
Moose Lake-Carlton County

Weather History for KMZH - October, 2012

Change the Weather History Date:

Sunday, October 7, 2012

  Actual Average Record
Temperature  
Mean Temperature 36 °F -  
Max Temperature 50 °F 58 °F 86 °F (2003)
Min Temperature 21 °F 33 °F 17 °F (2001)
Degree Days  
Heating Degree Days 30    
Moisture  
Dew Point 14 °F    
Average Humidity 49    
Maximum Humidity 86    
Minimum Humidity 17    
Precipitation  
Precipitation 0.00 in - - ()
Sea Level Pressure  
Sea Level Pressure 29.99 in    
Wind  
Wind Speed 3 mph (SW)    
Max Wind Speed 17 mph    
Max Gust Speed 23 mph    
Visibility 10 miles    
Events      
Averages and records for this station are not official NWS values.
T = Trace of Precipitation, MM = Missing Value Source: NWS Daily Summary

Daily Weather History Graph

Daily Weather History Graph

Search for Another Location

Airport or City:

Trip Planner

Search our weather history database for the weather conditions in past years. The results will help you decide how hot, cold, wet, or windy it might be!

Date:

Astronomy

Oct. 07, 2012 Rise Set
Actual Time 7:18 AM CDT 6:38 PM CDT
Civil Twilight 6:48 AM CDT 7:08 PM CDT
Nautical Twilight 6:13 AM CDT 7:43 PM CDT
Astronomical Twilight 5:38 AM CDT 8:18 PM CDT
Moon 11:37 PM CDT (10/7) 2:10 PM CDT (10/7)
Length of Visible Light 12h 20m
Length of Day
11h 20m
Waning Gibbous, 56% of the Moon is Illuminated
Oct 7
Waning Gibbous
Oct 8
Last Quarter
Oct 15
New
Oct 21
First Quarter
Oct 29
Full

Hourly Weather History & Observations

Time (CDT) Temp. Windchill Dew Point Humidity Pressure Visibility Wind Dir Wind Speed Gust Speed Precip Events Conditions
12:10 AM 28.4 °F - 19.4 °F 69% 30.16 in 10.0 mi Calm Calm - N/A   Clear
12:30 AM 28.4 °F - 19.4 °F 69% 30.16 in 10.0 mi Calm Calm - N/A   Clear
12:50 AM 28.4 °F - 17.6 °F 64% 30.16 in 10.0 mi Calm Calm - N/A   Clear
1:10 AM 24.8 °F - 17.6 °F 74% 30.15 in 10.0 mi Calm Calm - N/A   Clear
1:30 AM 23.0 °F - 17.6 °F 80% 30.15 in 10.0 mi Calm Calm - N/A   Clear
1:50 AM 23.0 °F - 17.6 °F 80% 30.14 in 10.0 mi Calm Calm - N/A   Clear
2:10 AM 23.0 °F - 17.6 °F 80% 30.14 in 10.0 mi Calm Calm - N/A   Clear
2:30 AM 23.0 °F - 17.6 °F 80% 30.14 in 10.0 mi Calm Calm - N/A   Scattered Clouds
2:50 AM 23.0 °F - 17.6 °F 80% 30.13 in 10.0 mi Calm Calm - N/A   Clear
3:10 AM 21.2 °F - 17.6 °F 86% 30.12 in 10.0 mi Calm Calm - N/A   Clear
3:50 AM 21.2 °F - 17.6 °F 86% 30.11 in 10.0 mi Calm Calm - N/A   Clear
4:10 AM 21.2 °F - 15.8 °F 80% 30.11 in 10.0 mi Calm Calm - N/A   Clear
4:30 AM 21.2 °F - 15.8 °F 80% 30.10 in 10.0 mi Calm Calm - N/A   Clear
4:50 AM 21.2 °F - 15.8 °F 80% 30.10 in 10.0 mi Calm Calm - N/A   Clear
5:10 AM 21.2 °F - 17.6 °F 86% 30.09 in 10.0 mi Calm Calm - N/A   Clear
5:30 AM 21.2 °F - 17.6 °F 86% 30.09 in 10.0 mi Calm Calm - N/A   Clear
5:50 AM 21.2 °F - 15.8 °F 80% 30.08 in 10.0 mi Calm Calm - N/A   Clear
6:10 AM 21.2 °F - 15.8 °F 80% 30.08 in 10.0 mi Calm Calm - N/A   Clear
6:30 AM 21.2 °F - 15.8 °F 80% 30.08 in 10.0 mi Calm Calm - N/A   Clear
6:50 AM 21.2 °F - 15.8 °F 80% 30.08 in 10.0 mi Calm Calm - N/A   Clear
7:10 AM 21.2 °F - 17.6 °F 86% 30.06 in 10.0 mi Calm Calm - N/A   Clear
7:30 AM 21.2 °F - 17.6 °F 86% 30.06 in 10.0 mi Calm Calm - N/A   Clear
7:50 AM 21.2 °F - 17.6 °F 86% 30.06 in 10.0 mi Calm Calm - N/A   Clear
8:10 AM 23.0 °F - 19.4 °F 86% 30.05 in 10.0 mi Calm Calm - N/A   Clear
8:30 AM 28.4 °F - 21.2 °F 74% 30.05 in 10.0 mi Calm Calm - N/A   Clear
8:50 AM 32.0 °F 26.4 °F 23.0 °F 69% 30.05 in 10.0 mi SW 5.8 mph - N/A   Clear
9:10 AM 33.8 °F 27.7 °F 23.0 °F 65% 30.04 in 10.0 mi SW 6.9 mph - N/A   Clear
9:30 AM 35.6 °F 28.6 °F 21.2 °F 56% 30.04 in 10.0 mi SSW 9.2 mph - N/A   Clear
9:50 AM 37.4 °F 31.4 °F 19.4 °F 48% 30.03 in 10.0 mi SSW 8.1 mph - N/A   Clear
10:10 AM 41.0 °F 35.8 °F 17.6 °F 39% 30.03 in 10.0 mi SSW 8.1 mph - N/A   Scattered Clouds
10:30 AM 41.0 °F 35.2 °F 15.8 °F 36% 30.03 in 10.0 mi SSW 9.2 mph - N/A   Clear
10:50 AM 42.8 °F 37.5 °F 12.2 °F 29% 30.02 in 10.0 mi SW 9.2 mph - N/A   Scattered Clouds
11:10 AM 44.6 °F 38.8 °F 14.0 °F 29% 30.02 in 10.0 mi WSW 11.5 mph 18.4 mph N/A   Scattered Clouds
11:30 AM 46.4 °F 39.8 °F 12.2 °F 25% 30.01 in 10.0 mi WSW 16.1 mph 21.9 mph N/A   Mostly Cloudy
11:50 AM 46.4 °F 39.8 °F 12.2 °F 25% 30.01 in 10.0 mi WSW 16.1 mph 23.0 mph N/A   Scattered Clouds
12:10 PM 46.4 °F 39.8 °F 10.4 °F 23% 30.01 in 10.0 mi SW 16.1 mph - N/A   Clear
12:30 PM 48.2 °F - 10.4 °F 22% 30.00 in 10.0 mi SW 13.8 mph 19.6 mph N/A   Clear
12:50 PM 46.4 °F 39.8 °F 10.4 °F 23% 29.99 in 10.0 mi SW 16.1 mph 23.0 mph N/A   Clear
1:30 PM 46.4 °F 41.5 °F 10.4 °F 23% 29.98 in 10.0 mi SW 10.4 mph - N/A   Clear
1:50 PM 50.0 °F - 10.4 °F 20% 29.97 in 10.0 mi West 9.2 mph 23.0 mph N/A   Clear
2:10 PM 50.0 °F - 6.8 °F 17% 29.96 in 10.0 mi SW 17.3 mph - N/A   Clear
2:30 PM 50.0 °F - 8.6 °F 19% 29.95 in 10.0 mi SSW 11.5 mph 18.4 mph N/A   Clear
2:50 PM 50.0 °F - 10.4 °F 20% 29.94 in 10.0 mi WSW 15.0 mph 18.4 mph N/A   Clear
3:10 PM 50.0 °F - 10.4 °F 20% 29.93 in 10.0 mi WSW 8.1 mph 18.4 mph N/A   Clear
3:30 PM 50.0 °F - 8.6 °F 19% 29.93 in 10.0 mi SW 12.7 mph 18.4 mph N/A   Clear
3:50 PM 48.2 °F - 8.6 °F 20% 29.92 in 10.0 mi SW 8.1 mph - N/A   Clear
4:10 PM 50.0 °F - 8.6 °F 19% 29.91 in 10.0 mi SW 15.0 mph 18.4 mph N/A   Clear
4:30 PM 50.0 °F - 8.6 °F 19% 29.90 in 10.0 mi SW 11.5 mph 17.3 mph N/A   Mostly Cloudy
4:50 PM 50.0 °F - 6.8 °F 17% 29.90 in 10.0 mi WSW 10.4 mph 17.3 mph N/A   Mostly Cloudy
5:10 PM 48.2 °F - 8.6 °F 20% 29.89 in 10.0 mi SW 10.4 mph 16.1 mph N/A   Scattered Clouds
5:30 PM 50.0 °F - 8.6 °F 19% 29.89 in 10.0 mi SSW 6.9 mph - N/A   Clear
5:50 PM 50.0 °F - 8.6 °F 19% 29.88 in 10.0 mi SSW 9.2 mph - N/A   Clear
6:10 PM 48.2 °F - 8.6 °F 20% 29.88 in 10.0 mi SW 10.4 mph - N/A   Clear
6:30 PM 46.4 °F 42.9 °F 8.6 °F 22% 29.88 in 10.0 mi SW 6.9 mph - N/A   Clear
7:10 PM 42.8 °F 40.1 °F 10.4 °F 27% 29.88 in 10.0 mi South 4.6 mph - N/A   Scattered Clouds
7:30 PM 41.0 °F 39.0 °F 10.4 °F 29% 29.88 in 10.0 mi South 3.5 mph - N/A   Scattered Clouds
7:50 PM 41.0 °F - 10.4 °F 29% 29.87 in 10.0 mi Calm Calm - N/A   Scattered Clouds
8:10 PM 41.0 °F - 10.4 °F 29% 29.87 in 10.0 mi Calm Calm - N/A   Clear
8:30 PM 35.6 °F - 8.6 °F 33% 29.86 in 10.0 mi Calm Calm - N/A   Clear
8:50 PM 33.8 °F - 14.0 °F 44% 29.86 in 10.0 mi Calm Calm - N/A   Scattered Clouds
9:10 PM 33.8 °F - 12.2 °F 41% 29.86 in 10.0 mi Calm Calm - N/A   Scattered Clouds
9:30 PM 32.0 °F - 14.0 °F 48% 29.86 in 10.0 mi Calm Calm - N/A   Scattered Clouds
9:50 PM 32.0 °F - 12.2 °F 44% 29.86 in 10.0 mi Calm Calm - N/A   Clear
10:10 PM 32.0 °F - 10.4 °F 41% 29.85 in 10.0 mi Calm Calm - N/A   Clear
10:30 PM 32.0 °F - 10.4 °F 41% 29.85 in 10.0 mi Calm Calm - N/A   Clear
10:50 PM 32.0 °F - 10.4 °F 41% 29.84 in 10.0 mi Calm Calm - N/A   Clear
11:10 PM 32.0 °F - 10.4 °F 41% 29.83 in 10.0 mi Calm Calm - N/A   Clear
11:30 PM 32.0 °F - 12.2 °F 44% 29.83 in 10.0 mi Calm Calm - N/A   Clear
11:50 PM 32.0 °F - 14.0 °F 48% 29.82 in 10.0 mi Calm Calm - N/A   Clear